Terminal Aerodrome Forecast
Issued by NWS

Current Version | Previous Version | Graphics & Text | Print | Product List | Glossary On
Versions: 1 2 3 4 5 6 7 8 9 10 11 12 13 14 15 16 17 18 19 20 21 22 23 24 25 26
000
FTUS41 KILN 280049 AAA
TAFLUK
TAF AMD
KLUK 280049Z 2801/2824 07008KT 3SM BR VCSH FEW009 BKN023
      TEMPO 2801/2805 -TSRA BR BKN009 OVC025CB
     FM280700 VRB03KT 3SM BR VCSH OVC009
     FM281400 24008KT P6SM BKN025
     FM281800 26010KT P6SM BKN035=

USA.gov is the U.S. government's official web portal to all federal, state and local government web resources and services.